STARLINK-32552 (62174 NORAD) Tracking and Keplerian Element Data

This shows tracking and keplerian element data for the satellite.

Feedback or suggestion? Click here.




ElementValue
Catalog62174
NameSTARLINK-32552
Epoch Orbit587
Epoch Day34.83335648
Epoch Year2025
RAAN90.4108
Inclination69.9993
Eccentricity0.0003508
Argument of Perigee273.9138
Mean Anonmoly58.3472
Mean Motion15.22957742
Decay Rate-0.01402135
L11 62174U 24225M 25034.83335648 -.01402135 00000+0 -65692-1 0 9995
L22 62174 69.9993 90.4108 0003508 273.9138 58.3472 15.22957742 5871



Live tracking and technical data element details for STARLINK-32552 (NORAD 62174). STARLINK-32552 can be tracked NOW for your location showing map with azimuth and elevation plus other details from your city location.







IsCatalogInMostPopularTable: catalog: 62174, numindb: 18
Update: records affected: 1



GetName: 62174 STARLINK-32552

Hit Count: updated at: Sun, 18 May 2025 22:52:47 GMT